This is the latest recevied weather packets stored in our database for station/object K5UTC. If no packets are shown the sender has not sent any weather packets the latest 10 day(s).
| Time | Temp. | Humidity | Pressure | Rain* | Wind** | Luminosity | Snow |
|---|---|---|---|---|---|---|---|
| 1777309747 | 27.22° C | 66% | 1016.1 hPa | 0 mm | - | 886 W/m² | - |
| 1777309445 | 26.67° C | 68% | 1016.2 hPa | 0 mm | - | 841 W/m² | - |
| 1777309142 | 26.67° C | 68% | 1016.2 hPa | 0 mm | - | 559 W/m² | - |
| 1777308840 | 26.11° C | 66% | 1016.2 hPa | 0 mm | - | 787 W/m² | - |
| 1777308535 | 25.56° C | 70% | 1016.3 hPa | 0 mm | - | 433 W/m² | - |
| 1777308230 | 25.56° C | 68% | 1016.3 hPa | 0 mm | - | 367 W/m² | - |
| 1777307926 | 25.56° C | 68% | 1016 hPa | 0 mm | - | 404 W/m² | - |
| 1777307624 | 26.11° C | 66% | 1016.2 hPa | 0 mm | - | 514 W/m² | - |
| 1777307321 | 25.56° C | 71% | 1016.2 hPa | 0 mm | - | 622 W/m² | - |
| 1777307018 | 25.56° C | 69% | 1016.1 hPa | 0 mm | - | 665 W/m² | - |
| 1777306716 | 25.56° C | 69% | 1016.2 hPa | 0 mm | - | 664 W/m² | - |
| 1777306413 | 25° C | 69% | 1016.3 hPa | 0 mm | - | 643 W/m² | - |
| 1777306107 | 25° C | 68% | 1016.2 hPa | 0 mm | - | 472 W/m² | - |
| 1777305803 | 25° C | 70% | 1016.3 hPa | 0 mm | - | 521 W/m² | - |
| 1777305499 | 25° C | 66% | 1016.2 hPa | 0 mm | - | 447 W/m² | - |
| 1777305195 | 25° C | 68% | 1016.3 hPa | 0 mm | - | 589 W/m² | - |
| 1777304889 | 25° C | 70% | 1016.3 hPa | 0 mm | - | 607 W/m² | - |
| 1777304586 | 25° C | 70% | 1016.3 hPa | 0 mm | - | 643 W/m² | - |
| 1777304283 | 24.44° C | 69% | 1016.4 hPa | 0 mm | - | 595 W/m² | - |
| 1777303981 | 24.44° C | 70% | 1016.6 hPa | 0 mm | - | 533 W/m² | - |
* Rain latest hour (hover to see other rain measurements)
** Current wind speed in m/s (hover to see current wind gust speed)